Total_Precipitation_Accumulation
0.00 0.00 0.00 0.00 0.00 0.00 0.00 0.00 0.00 0.00 0.00 0.00 0.00 0.00 0.00 0.00 0.00 0.00 0.00 0.00 0.00 0.00 0.00 0.00 0.00 0.00 0.01 0.02 0.04 0.06 0.08 0.10 0.12 0.16 0.21 0.20 0.20 0.20
0.00 0.00 0.00 0.00 0.00 0.00 0.00 0.00 0.00 0.00 0.00 0.00 0.00 0.00 0.00 0.00 0.00 0.00 0.00 0.00 0.00 0.00 0.00 0.01 0.02 0.03 0.03 0.03 0.03 0.03 0.04 0.07 0.12 0.20 0.28 0.32 0.31 0.31
0.00 0.00 0.00 0.00 0.00 0.00 0.00 0.00 0.00 0.00 0.00 0.00 0.00 0.00 0.00 0.00 0.00 0.00 0.00 0.00 0.02 0.04 0.02 0.02 0.01 0.01 0.00 0.01 0.04 0.05 0.06 0.09 0.13 0.16 0.22 0.31 0.33 0.34
0.00 0.00 0.00 0.00 0.00 0.00 0.00 0.00 0.00 0.00 0.00 0.01 0.00 0.00 0.00 0.00 0.00 0.00 0.01 0.03 0.02 0.00 0.00 0.00 0.00 0.00 0.01 0.01 0.03 0.05 0.06 0.08 0.10 0.13 0.14 0.16 0.16 0.19
0.00 0.00 0.00 0.00 0.00 0.00 0.00 0.00 0.00 0.00 0.01 0.02 0.00 0.00 0.00 0.01 0.02 0.01 0.00 0.00 0.00 0.00 0.00 0.00 0.00 0.00 0.01 0.02 0.03 0.04 0.07 0.08 0.08 0.08 0.08 0.10 0.13 0.15
0.00 0.00 0.00 0.00 0.00 0.00 0.00 0.00 0.00 0.00 0.00 0.01 0.07 0.07 0.06 0.05 0.02 0.00 0.00 0.00 0.00 0.00 0.00 0.00 0.00 0.00 0.00 0.00 0.00 0.00 0.00 0.01 0.01 0.02 0.03 0.04 0.06 0.07
0.00 0.00 0.00 0.00 0.00 0.00 0.01 0.01 0.01 0.02 0.10 0.21 0.19 0.18 0.09 0.01 0.00 0.00 0.00 0.01 0.03 0.01 0.00 0.00 0.00 0.00 0.00 0.00 0.00 0.00 0.00 0.01 0.03 0.05 0.08 0.11 0.14 0.15
0.00 0.00 0.00 0.00 0.00 0.00 0.01 0.02 0.02 0.11 0.24 0.30 0.24 0.06 0.01 0.00 0.00 0.03 0.13 0.11 0.05 0.00 0.00 0.01 0.00 0.00 0.00 0.00 0.00 0.00 0.01 0.02 0.02 0.04 0.08 0.11 0.14 0.16
0.00 0.00 0.00 0.00 0.00 0.00 0.00 0.03 0.10 0.15 0.16 0.08 0.02 0.00 0.00 0.04 0.19 0.16 0.07 0.08 0.06 0.01 0.02 0.03 0.00 0.00 0.00 0.00 0.00 0.00 0.00 0.01 0.02 0.04 0.06 0.09 0.10 0.10
0.00 0.00 0.00 0.00 0.00 0.02 0.05 0.17 0.14 0.06 0.00 0.00 0.00 0.01 0.05 0.08 0.06 0.12 0.10 0.08 0.02 0.00 0.00 0.06 0.00 0.00 0.00 0.00 0.00 0.00 0.00 0.01 0.03 0.05 0.07 0.10 0.12 0.12
0.00 0.00 0.01 0.01 0.01 0.04 0.11 0.11 0.02 0.00 0.00 0.00 0.04 0.03 0.01 0.00 0.01 0.13 0.12 0.11 0.06 0.00 0.00 0.03 0.02 0.00 0.00 0.00 0.00 0.00 0.00 0.01 0.01 0.03 0.06 0.08 0.11 0.15
0.00 0.00 0.01 0.01 0.03 0.12 0.06 0.02 0.01 0.00 0.09 0.05 0.01 0.00 0.00 0.00 0.00 0.03 0.14 0.34 0.13 0.11 0.00 0.16 0.08 0.05 0.21 0.01 0.00 0.00 0.00 0.00 0.00 0.02 0.06 0.09 0.11 0.16
0.00 0.00 0.00 0.03 0.07 0.04 0.03 0.00 0.01 0.03 0.04 0.00 0.00 0.00 0.00 0.00 0.00 0.01 0.05 0.35 0.48 0.26 0.01 0.37 0.37 0.05 0.21 0.06 0.00 0.00 0.00 0.00 0.05 0.11 0.24 0.27 0.29 0.35
0.01 0.00 0.01 0.05 0.02 0.00 0.00 0.01 0.02 0.01 0.00 0.00 0.00 0.00 0.00 0.01 0.01 0.01 0.02 0.05 0.16 0.36 0.13 0.22 0.57 0.22 0.34 0.15 0.02 0.00 0.00 0.03 0.20 0.28 0.37 0.31 0.29 0.30
0.01 0.03 0.02 0.01 0.00 0.00 0.00 0.00 0.01 0.00 0.01 0.03 0.01 0.01 0.01 0.01 0.01 0.01 0.01 0.00 0.01 0.03 0.05 0.06 0.26 0.23 0.31 0.30 0.17 0.03 0.10 0.06 0.08 0.27 0.45 0.57 0.69 0.48
0.01 0.01 0.00 0.00 0.00 0.00 0.00 0.00 0.00 0.00 0.03 0.05 0.03 0.01 0.01 0.01 0.01 0.02 0.06 0.02 0.06 0.00 0.00 0.02 0.11 0.28 0.30 0.12 0.24 0.17 0.08 0.30 0.23 0.32 0.41 0.46 0.45 0.31
0.01 0.00 0.00 0.00 0.00 0.00 0.00 0.00 0.00 0.00 0.01 0.01 0.03 0.04 0.02 0.01 0.01 0.01 0.05 0.10 0.11 0.05 0.03 0.00 0.00 0.04 0.07 0.10 0.13 0.08 0.17 0.22 0.35 0.36 0.35 0.46 0.30 0.16
0.00 0.00 0.00 0.00 0.00 0.00 0.00 0.00 0.00 0.00 0.01 0.04 0.03 0.03 0.07 0.05 0.05 0.02 0.03 0.10 0.13 0.05 0.06 0.03 0.03 0.04 0.01 0.01 0.12 0.30 0.27 0.27 0.38 0.35 0.33 0.44 0.29 0.19
0.00 0.00 0.00 0.00 0.00 0.00 0.01 0.02 0.02 0.00 0.02 0.05 0.05 0.07 0.12 0.08 0.04 0.04 0.03 0.05 0.05 0.04 0.05 0.04 0.08 0.15 0.17 0.06 0.02 0.21 0.49 0.36 0.30 0.29 0.29 0.35 0.40 0.29
0.00 0.00 0.00 0.00 0.01 0.02 0.03 0.04 0.04 0.02 0.02 0.03 0.08 0.10 0.13 0.16 0.08 0.07 0.05 0.11 0.14 0.11 0.03 0.01 0.03 0.14 0.40 0.37 0.25 0.17 0.27 0.40 0.43 0.50 0.50 0.41 0.45 0.29
0.00 0.00 0.00 0.01 0.02 0.03 0.04 0.04 0.05 0.09 0.13 0.16 0.09 0.11 0.13 0.21 0.10 0.04 0.07 0.07 0.11 0.09 0.06 0.01 0.03 0.13 0.19 0.10 0.10 0.08 0.13 0.21 0.32 0.52 0.48 0.32 0.30 0.14
0.00 0.01 0.00 0.01 0.03 0.05 0.05 0.04 0.05 0.04 0.07 0.07 0.09 0.13 0.15 0.17 0.21 0.15 0.10 0.14 0.08 0.08 0.07 0.02 0.01 0.04 0.04 0.08 0.08 0.08 0.07 0.05 0.10 0.10 0.26 0.56 0.69 0.76
0.01 0.01 0.01 0.03 0.04 0.04 0.05 0.05 0.06 0.05 0.08 0.14 0.13 0.16 0.19 0.18 0.13 0.14 0.12 0.11 0.12 0.10 0.05 0.02 0.00 0.02 0.03 0.06 0.06 0.07 0.03 0.03 0.04 0.09 0.24 0.29 0.42 0.63